Location: �quirre
(50.4736°N, 2.2351°E)
Time: 05:07:49
(UTC+00:00)

Cosmos 2297 Rocket - Pass Details

Date: 07 August 2020
Orbit: 838 x 845 km, 71.0° (Epoch: 19 September)

Event Time Altitude Azimuth Distance (km) Brightness Sun altitude
Exits shadow 00:46:07 24° 132° (SE) 1,661 3.5 -22.3°
Maximum altitude 00:47:43 28° 104° (ESE) 1,528 3.5 -22.3°
Drops below altitude 10° 00:52:26 10° 47° (NE) 2,466 5.4 -22.1°
Sets 00:55:11 0° 37° (NE) 3,407 6.5 -22.0°
